GEFSMW_con_probscp_066.txt.gz
Probability
24 31 39 40 35 35 38 38 35 32 29 26 23 21 19 17 14 14 15 15 17 23 25 24 22 23 23 20 14 8 6 4 4 4 3 3 2 3 5 6 6 5 5
22 25 29 29 26 25 24 22 21 21 19 17 15 13 13 12 10 10 11 11 14 18 20 19 17 17 18 16 13 10 7 6 5 5 4 3 2 2 4 6 7 6 6
14 14 15 14 13 12 10 9 10 10 8 6 5 5 6 7 6 6 7 6 7 11 14 14 14 14 13 11 9 8 6 6 5 5 6 5 3 2 4 5 6 5 5
5 5 4 5 5 5 5 7 7 7 4 1 1 2 4 5 5 4 3 2 3 5 9 12 14 15 13 9 7 5 5 5 4 5 6 5 3 2 3 3 3 3 2
1 1 1 2 2 2 4 5 5 5 3 1 0 1 3 5 4 3 1 1 1 3 5 9 14 17 16 14 13 11 10 8 7 6 7 5 3 1 1 1 1 1 0
1 1 1 2 1 1 3 3 4 4 3 2 1 2 4 6 5 2 2 2 1 1 3 6 11 16 18 21 23 21 18 16 15 14 11 8 4 2 0 0 0 0 0
2 2 2 3 2 1 1 1 2 3 3 3 3 4 6 6 4 2 2 2 2 1 1 4 7 11 14 19 23 25 25 25 25 25 21 17 12 7 4 2 0 0 0
1 1 1 2 2 1 0 0 1 1 2 2 4 5 6 4 3 2 1 1 2 3 2 2 4 6 8 11 16 21 25 29 31 31 31 29 23 17 12 8 4 2 1
0 0 0 1 1 0 0 0 1 1 1 1 2 4 4 3 3 3 2 1 2 3 3 1 2 3 4 5 8 13 18 25 29 31 34 35 31 25 22 17 12 8 6
0 0 0 0 0 0 0 0 1 2 1 1 1 1 2 3 3 3 3 2 3 3 2 1 0 1 2 2 3 5 9 13 19 24 27 31 33 31 29 26 23 19 15
0 0 0 0 0 0 0 0 1 2 1 0 0 0 1 2 3 3 3 3 3 3 2 1 0 0 0 1 1 1 3 5 9 12 14 19 25 30 32 32 32 30 28
0 0 0 0 0 0 0 0 0 0 0 0 0 0 0 1 2 2 2 3 3 3 2 1 0 0 0 0 0 0 1 1 3 4 5 7 12 19 25 30 33 34 32
0 0 0 0 0 0 0 0 0 0 0 0 0 0 0 0 1 1 1 1 2 2 1 0 0 1 1 0 0 0 0 0 1 1 2 3 5 9 14 20 25 27 25
0 0 0 0 0 0 0 0 0 0 0 0 0 0 0 0 0 0 0 0 1 1 0 0 1 2 2 1 0 0 0 0 0 0 1 1 2 4 7 11 15 17 16
0 0 0 0 0 0 0 0 0 0 0 0 0 0 0 0 0 0 0 0 0 0 0 0 1 2 2 1 0 0 0 0 0 0 0 0 1 2 3 5 7 8 9
0 0 0 0 0 0 0 0 0 0 0 0 0 0 0 0 0 0 0 0 0 0 0 0 0 1 1 1 0 0 0 0 0 0 0 0 0 1 1 1 1 2 2
0 0 0 0 0 0 0 0 0 0 0 0 0 0 0 0 0 0 0 1 1 1 1 1 0 0 0 0 0 0 0 0 0 0 0 0 0 0 0 0 0 0 0
0 0 0 0 0 0 0 0 0 0 0 0 0 0 0 0 0 0 1 2 3 3 3 2 1 0 0 0 0 0 0 0 0 0 0 0 0 0 0 0 0 0 0
0 0 0 0 0 0 0 0 0 0 0 0 0 0 0 0 0 0 0 2 3 4 3 2 1 0 0 0 0 0 0 0 0 0 0 0 0 0 0 0 0 0 0
0 0 0 0 0 0 0 0 0 0 0 0 0 0 0 0 0 0 0 0 1 1 1 1 0 0 0 0 0 0 0 0 0 0 0 0 0 0 0 0 0 0 0
0 0 0 0 0 0 0 0 0 0 0 0 0 0 0 0 0 0 0 0 0 0 0 0 0 0 0 0 0 0 0 0 0 0 0 0 0 0 0 0 0 0 0
0 0 0 0 0 0 0 0 0 0 0 0 0 0 0 0 0 0 0 0 0 0 0 0 0 0 0 0 0 0 0 0 0 0 0 0 0 0 0 0 0 0 0
0 0 0 0 0 0 0 0 0 0 0 0 0 0 0 0 0 0 0 0 0 0 0 0 0 0 0 0 0 0 0 0 0 0 0 0 0 0 0 0 0 0 0
0 0 0 0 0 0 0 0 0 0 0 0 0 0 0 0 0 0 0 0 0 0 0 0 0 0 0 0 0 0 0 0 0 0 0 0 0 0 0 0 0 0 0
0 0 0 0 0 0 0 0 0 0 0 0 0 0 0 0 0 0 0 0 0 0 0 0 0 0 0 0 0 0 0 0 0 0 0 0 0 0 0 0 0 0 0
0 0 0 0 0 0 0 0 0 0 0 0 0 0 0 0 0 0 0 0 0 0 0 0 0 0 0 0 0 0 0 0 0 0 0 0 0 0 0 0 0 0 0

GEFSMW_con_probscp_072.txt.gz
Probability
32 37 44 46 49 58 67 72 75 77 74 70 70 73 72 66 58 50 45 38 32 31 32 34 35 30 23 20 21 20 19 20 20 18 16 14 13 16 19 18 13 9 10
25 27 31 33 37 43 50 56 61 61 58 55 55 57 58 54 49 42 37 31 26 25 25 28 29 25 19 17 18 17 15 15 16 14 12 11 11 13 14 14 13 12 12
12 12 14 17 20 23 27 33 38 37 36 36 35 37 38 38 36 32 28 23 19 18 20 21 21 20 16 13 14 13 12 13 13 11 9 10 11 9 9 10 11 13 14
4 4 6 8 9 10 13 19 23 23 24 25 24 24 23 23 22 22 22 19 15 14 14 15 16 17 16 13 12 12 13 15 14 12 12 13 12 8 7 8 9 11 12
3 4 4 5 4 4 6 14 21 23 25 26 25 22 19 16 15 14 15 14 11 10 10 10 12 13 13 13 12 13 16 17 17 19 20 18 14 10 7 6 7 8 7
2 3 3 3 4 5 7 16 27 33 35 36 35 32 27 21 14 10 9 9 8 7 7 8 9 9 9 10 11 12 17 19 21 26 28 26 22 17 12 8 6 6 6
1 2 4 6 9 10 13 22 34 42 43 42 41 38 31 21 11 5 4 5 5 5 5 6 6 6 5 6 8 10 14 17 20 25 30 31 31 28 23 17 10 7 7
1 2 5 8 10 12 17 24 33 39 39 37 35 32 25 14 5 1 2 3 3 3 3 3 4 4 4 4 6 8 10 13 16 19 23 28 32 32 29 25 18 12 9
0 1 3 5 6 9 13 18 22 25 27 25 22 19 16 10 5 3 2 2 3 3 2 1 1 3 3 3 3 3 5 8 12 14 17 22 25 26 27 27 22 16 12
0 0 1 2 3 5 7 8 10 12 14 14 11 9 10 10 8 6 4 4 4 3 2 1 1 2 3 2 1 0 2 4 7 9 11 15 19 20 20 21 20 17 16
0 0 0 1 1 1 2 2 3 4 5 6 4 4 6 8 8 7 5 5 4 3 2 2 1 1 2 2 1 0 0 1 3 5 6 9 13 15 15 15 15 16 18
0 0 0 0 0 0 0 1 1 1 1 1 1 1 3 5 5 4 3 3 4 4 4 4 2 1 1 2 1 0 0 0 1 1 2 4 8 10 11 11 11 13 15
0 0 0 0 0 0 0 0 0 0 0 0 0 0 1 2 2 1 1 2 3 4 5 5 4 2 1 2 2 1 1 0 0 0 1 2 5 7 8 8 8 9 10
0 0 0 0 0 0 0 0 0 0 0 0 0 0 0 0 0 0 0 1 2 3 3 4 4 3 1 1 2 3 2 0 0 0 0 1 2 4 5 5 7 8 9
0 0 0 0 0 0 0 0 0 0 0 0 0 0 0 0 0 0 0 0 0 1 1 2 3 3 2 1 1 3 2 1 0 0 0 0 1 1 1 2 4 7 9
0 0 0 0 0 0 0 0 0 0 0 0 0 0 0 0 0 0 0 0 0 0 1 1 1 2 1 0 0 1 2 2 1 1 1 0 0 0 0 0 2 3 4
0 0 0 0 0 0 0 0 0 0 0 0 0 0 0 0 0 0 0 0 0 0 0 0 0 0 0 0 0 1 2 2 2 2 1 0 0 0 1 1 0 1 1
0 0 0 0 0 0 0 0 0 0 0 0 0 0 0 0 0 0 0 0 0 0 0 0 0 0 0 0 0 0 1 1 1 1 1 1 1 1 1 1 1 0 0
0 0 0 0 0 0 0 0 0 0 0 0 0 0 0 0 0 0 0 0 0 0 0 0 0 0 0 0 0 0 0 0 1 1 0 1 1 1 1 1 1 1 1
0 0 0 0 0 0 0 0 0 0 0 0 0 0 0 0 0 0 0 0 0 0 0 0 0 0 0 0 0 0 0 0 0 1 0 0 0 0 0 0 0 0 0
0 0 0 0 0 0 0 0 0 0 0 0 0 0 0 0 0 0 0 0 0 0 0 0 0 0 0 0 0 0 0 0 0 0 0 0 0 0 0 0 0 0 0
0 0 0 0 0 0 0 0 0 0 0 0 0 0 0 0 0 0 0 0 0 0 0 0 0 0 0 0 0 0 0 0 0 0 0 0 0 0 0 0 0 0 0
0 0 0 0 0 0 0 0 0 0 0 0 0 0 0 0 0 0 0 0 0 0 0 0 0 0 0 0 0 0 0 0 0 0 0 0 0 0 0 0 0 0 0
0 0 0 0 0 0 0 0 0 0 0 0 0 0 0 0 0 0 0 0 0 0 0 0 0 0 0 0 0 0 0 0 0 0 0 0 0 0 0 0 0 0 0
0 0 0 0 0 0 0 0 0 0 0 0 0 0 0 0 0 0 0 0 0 0 0 0 0 0 0 0 0 0 0 0 0 0 0 0 0 0 0 0 0 0 0
0 0 0 0 0 0 0 0 0 0 0 0 0 0 0 0 0 0 0 0 0 0 0 0 0 0 0 0 0 0 0 0 0 0 0 0 0 0 0 0 0 0 0

GEFSMW_con_probscp_078.txt.gz
Probability
12 12 13 14 16 17 16 16 14 11 10 8 5 5 7 8 7 5 4 3 2 2 2 2 1 1 2 3 3 3 3 3 3 3 3 4 5 4 2 1 1 0 0
6 7 8 9 10 10 10 9 8 6 5 4 3 3 4 5 5 4 2 1 1 1 1 1 0 0 1 1 2 2 3 3 3 2 2 2 4 4 2 0 0 0 0
1 2 3 3 4 4 3 3 2 1 1 0 1 1 1 1 1 1 0 0 0 0 0 0 0 0 0 0 0 1 1 2 1 1 1 1 3 3 1 0 0 1 1
0 0 1 1 2 2 1 0 0 0 0 0 0 0 0 0 0 0 0 0 0 0 0 0 0 0 0 0 0 0 0 0 0 0 0 0 1 1 0 0 0 0 0
0 0 0 1 1 1 1 0 0 0 0 0 0 0 0 0 0 0 0 0 0 0 0 0 0 0 0 0 0 0 0 0 0 0 0 0 0 0 0 0 0 0 0
0 0 0 0 0 0 0 0 0 0 0 0 0 0 0 0 0 0 0 0 0 0 0 0 0 0 0 0 0 0 0 0 0 0 0 0 0 0 0 0 0 0 0
0 0 0 0 0 0 0 0 0 0 0 0 0 0 0 0 0 0 0 0 0 0 0 0 0 0 0 0 0 0 0 0 0 0 0 0 0 0 0 0 0 0 0
0 0 0 0 0 0 0 0 0 0 0 0 0 0 0 0 0 0 0 0 0 0 0 0 0 0 0 0 0 0 0 0 0 0 0 0 0 0 0 0 0 0 0
0 0 0 0 0 0 0 0 0 0 0 0 0 0 0 0 0 0 0 0 0 0 0 0 0 0 0 0 0 0 0 0 0 0 0 0 0 0 0 0 0 0 0
0 0 0 0 0 0 0 0 0 0 0 0 0 0 0 0 0 0 0 0 0 0 0 0 0 0 0 0 0 0 0 0 0 0 0 0 0 0 0 0 0 0 0
0 0 0 0 0 0 0 0 0 0 0 0 0 0 0 0 0 0 0 0 0 0 0 0 0 0 0 0 0 0 0 0 0 0 0 0 0 0 0 0 0 0 0
0 0 0 0 0 0 0 0 0 0 0 0 0 0 0 0 0 0 0 0 0 0 0 0 0 0 0 0 0 0 0 0 0 0 0 0 0 0 0 0 0 0 0
0 0 0 0 0 0 0 0 0 0 0 0 0 0 0 0 0 0 0 0 0 0 0 0 0 0 0 0 0 0 0 0 0 0 0 0 0 0 0 0 0 0 0
0 0 0 0 0 0 0 0 0 0 0 0 0 0 0 0 0 0 0 0 0 0 0 0 0 0 0 0 0 0 0 0 0 0 0 0 0 0 0 0 0 0 0
0 0 0 0 0 0 0 0 0 0 0 0 0 0 0 0 0 0 0 0 0 0 0 0 0 0 0 0 0 0 0 0 0 0 0 0 0 0 0 0 0 0 0
0 0 0 0 0 0 0 0 0 0 0 0 0 0 0 0 0 0 0 0 0 0 0 0 0 0 0 0 0 0 0 0 0 0 0 0 0 0 0 0 0 0 0
0 0 0 0 0 0 0 0 0 0 0 0 0 0 0 0 0 0 0 0 0 0 0 0 0 0 0 0 0 0 0 0 0 0 0 0 0 0 0 0 0 0 0
0 0 0 0 0 0 0 0 0 0 0 0 0 0 0 0 0 0 0 0 0 0 0 0 0 0 0 0 0 0 0 0 0 0 0 0 0 0 0 0 0 0 0
0 0 0 0 0 0 0 0 0 0 0 0 0 0 0 0 0 0 0 0 0 0 0 0 0 0 0 0 0 0 0 0 0 0 0 0 0 0 0 0 0 0 0
0 0 0 0 0 0 0 0 0 0 0 0 0 0 0 0 0 0 0 0 0 0 0 0 0 0 0 0 0 0 0 0 0 0 0 0 0 0 0 0 0 0 0
0 0 0 0 0 0 0 0 0 0 0 0 0 0 0 0 0 0 0 0 0 0 0 0 0 0 0 0 0 0 0 0 0 0 0 0 0 0 0 0 0 0 0
0 0 0 0 0 0 0 0 0 0 0 0 0 0 0 0 0 0 0 0 0 0 0 0 0 0 0 0 0 0 0 0 0 0 0 0 0 0 0 0 0 0 0
0 0 0 0 0 0 0 0 0 0 0 0 0 0 0 0 0 0 0 0 0 0 0 0 0 0 0 0 0 0 0 0 0 0 0 0 0 0 0 0 0 0 0
0 0 0 0 0 0 0 0 0 0 0 0 0 0 0 0 0 0 0 0 0 0 0 0 0 0 0 0 0 0 0 0 0 0 0 0 0 0 0 0 0 0 0
0 0 0 0 0 0 0 0 0 0 0 0 0 0 0 0 0 0 0 0 0 0 0 0 0 0 0 0 0 0 0 0 0 0 0 0 0 0 0 0 0 0 0
0 0 0 0 0 0 0 0 0 0 0 0 0 0 0 0 0 0 0 0 0 0 0 0 0 0 0 0 0 0 0 0 0 0 0 0 0 0 0 0 0 0 0

GEFSMW_con_probscp_084.txt.gz
Probability
4 4 3 2 1 0 0 0 0 0 0 0 0 0 0 0 0 0 0 0 0 0 0 0 0 0 0 0 0 0 0 1 1 2 4 4 3 3 3 3 4 5 6
2 1 1 1 0 0 0 0 0 0 0 0 0 0 0 0 0 0 0 0 0 0 0 0 0 0 0 0 0 0 0 0 1 2 3 3 2 2 3 3 4 5 5
0 0 0 0 0 0 0 0 0 0 0 0 0 0 0 0 0 0 0 0 0 0 0 0 0 0 0 0 0 0 0 0 0 1 2 1 0 1 2 3 3 3 3
0 0 0 0 0 0 0 0 0 0 0 0 0 0 0 0 0 0 0 0 0 0 0 0 0 0 0 0 0 0 0 0 0 0 0 0 0 0 1 2 1 1 1
0 0 0 0 0 0 0 0 0 0 0 0 0 0 0 0 0 0 0 0 0 0 0 0 0 0 0 0 0 0 0 0 0 0 0 0 0 0 0 0 0 0 0
0 0 0 0 0 0 0 0 0 0 0 0 0 0 0 0 0 0 0 0 0 0 0 0 0 0 0 0 0 0 0 0 0 0 0 0 0 0 0 0 0 0 0
0 0 0 0 0 0 0 0 0 0 0 0 0 0 0 0 0 0 0 0 0 0 0 0 0 0 0 0 0 0 0 0 0 0 0 0 0 0 0 0 0 0 0
0 0 0 0 0 0 0 0 0 0 0 0 0 0 0 0 0 0 0 0 0 0 0 0 0 0 0 0 0 0 0 0 0 0 0 0 0 0 0 0 0 0 0
0 0 0 0 0 0 0 0 0 0 0 0 0 0 0 0 0 0 0 0 0 0 0 0 0 0 0 0 0 0 0 0 0 0 0 0 0 0 0 0 0 0 0
0 0 0 0 0 0 0 0 0 0 0 0 0 0 0 0 0 0 0 0 0 0 0 0 0 0 0 0 0 0 0 0 0 0 0 0 0 0 0 0 0 0 0
0 0 0 0 0 0 0 0 0 0 0 0 0 0 0 0 0 0 0 0 0 0 0 0 0 0 0 0 0 0 0 0 0 0 0 0 0 0 0 0 0 0 0
0 0 0 0 0 0 0 0 0 0 0 0 0 0 0 0 0 0 0 0 0 0 0 0 0 0 0 0 0 0 0 0 0 0 0 0 0 0 0 0 0 0 0
0 0 0 0 0 0 0 0 0 0 0 0 0 0 0 0 0 0 0 0 0 0 0 0 0 0 0 0 0 0 0 0 0 0 0 0 0 0 0 0 0 0 0
0 0 0 0 0 0 0 0 0 0 0 0 0 0 0 0 0 0 0 0 0 0 0 0 0 0 0 0 0 0 0 0 0 0 0 0 0 0 0 0 0 0 0
0 0 0 0 0 0 0 0 0 0 0 0 0 0 0 0 0 0 0 0 0 0 0 0 0 0 0 0 0 0 0 0 0 0 0 0 0 0 0 0 0 0 0
0 0 0 0 0 0 0 0 0 0 0 0 0 0 0 0 0 0 0 0 0 0 0 0 0 0 0 0 0 0 0 0 0 0 0 0 0 0 0 0 0 0 0
0 0 0 0 0 0 0 0 0 0 0 0 0 0 0 0 0 0 0 0 0 0 0 0 0 0 0 0 0 0 0 0 0 0 0 0 0 0 0 0 0 0 0
0 0 0 0 0 0 0 0 0 0 0 0 0 0 0 0 0 0 0 0 0 0 0 0 0 0 0 0 0 0 0 0 0 0 0 0 0 0 0 0 0 0 0
0 0 0 0 0 0 0 0 0 0 0 0 0 0 0 0 0 0 0 0 0 0 0 0 0 0 0 0 0 0 0 0 0 0 0 0 0 0 0 0 0 0 0
0 0 0 0 0 0 0 0 0 0 0 0 0 0 0 0 0 0 0 0 0 0 0 0 0 0 0 0 0 0 0 0 0 0 0 0 0 0 0 0 0 0 0
0 0 0 0 0 0 0 0 0 0 0 0 0 0 0 0 0 0 0 0 0 0 0 0 0 0 0 0 0 0 0 0 0 0 0 0 0 0 0 0 0 0 0
0 0 0 0 0 0 0 0 0 0 0 0 0 0 0 0 0 0 0 0 0 0 0 0 0 0 0 0 0 0 0 0 0 0 0 0 0 0 0 0 0 0 0
0 0 0 0 0 0 0 0 0 0 0 0 0 0 0 0 0 0 0 0 0 0 0 0 0 0 0 0 0 0 0 0 0 0 0 0 0 0 0 0 0 0 0
0 0 0 0 0 0 0 0 0 0 0 0 0 0 0 0 0 0 0 0 0 0 0 0 0 0 0 0 0 0 0 0 0 0 0 0 0 0 0 0 0 0 0
0 0 0 0 0 0 0 0 0 0 0 0 0 0 0 0 0 0 0 0 0 0 0 0 0 0 0 0 0 0 0 0 0 0 0 0 0 0 0 0 0 0 0
0 0 0 0 0 0 0 0 0 0 0 0 0 0 0 0 0 0 0 0 0 0 0 0 0 0 0 0 0 0 0 0 0 0 0 0 0 0 0 0 0 0 0

GEFSMW_con_probscp_090.txt.gz
Probability
13 15 16 14 12 12 15 16 15 13 9 5 3 3 3 3 2 2 1 1 2 2 2 2 3 3 4 4 4 6 7 7 6 5 4 4 3 3 2 1 2 4 5
7 9 9 7 6 8 10 11 11 9 6 3 2 2 2 2 1 1 2 3 3 3 2 1 2 2 2 2 3 5 5 5 4 3 2 2 2 2 2 2 3 6 8
3 3 2 1 1 2 4 5 6 5 3 1 1 1 1 1 1 2 4 5 4 3 2 1 1 1 0 0 1 3 3 3 3 2 1 2 2 3 3 3 4 6 8
2 2 1 0 0 0 1 2 3 3 3 3 2 2 1 0 2 4 5 5 4 2 1 0 0 0 0 0 0 1 1 3 3 2 2 2 2 3 4 3 3 4 5
1 1 1 0 0 0 0 1 3 3 4 5 6 5 2 1 2 4 4 3 2 1 0 0 0 0 0 0 0 0 1 2 3 2 1 1 1 2 2 1 1 3 4
0 0 0 0 0 0 0 1 3 5 6 7 8 7 5 3 3 3 3 2 1 0 0 0 0 0 0 0 0 0 1 2 3 2 0 0 0 1 1 1 1 2 4
0 0 0 0 1 1 1 2 5 7 7 7 8 7 6 5 4 3 1 1 0 0 0 0 0 0 0 0 0 0 1 2 2 1 0 0 0 1 2 1 0 1 3
0 0 0 0 1 2 2 3 5 7 6 6 6 6 6 5 3 2 1 0 0 0 0 0 0 0 0 0 0 0 0 1 1 0 0 0 0 1 1 1 1 1 2
0 0 0 0 1 1 1 1 3 4 4 3 4 4 3 3 1 1 0 0 0 0 0 0 0 0 0 0 0 0 0 0 0 0 0 0 0 0 1 2 2 1 1
0 0 0 0 0 0 0 0 0 1 2 2 2 2 1 1 0 0 0 0 0 0 0 0 0 0 0 0 0 0 0 0 0 0 0 0 0 0 1 1 2 1 1
0 0 0 0 0 0 0 0 0 1 2 2 1 0 0 0 0 0 0 0 0 0 0 0 0 0 0 0 0 0 0 0 0 0 0 0 0 0 0 0 1 1 0
0 0 0 0 0 0 0 0 0 1 2 1 0 0 0 0 0 0 0 0 0 0 0 0 0 0 0 0 0 0 0 0 0 0 0 0 0 0 0 0 0 0 0
0 0 1 1 0 0 0 0 0 1 1 0 0 0 0 0 0 0 0 0 0 0 0 0 0 0 0 0 0 0 0 0 0 0 0 0 0 0 0 0 0 0 0
1 1 2 2 1 0 0 0 0 0 0 0 0 0 0 0 0 0 0 0 0 0 0 0 0 0 0 0 0 0 0 0 0 0 0 0 0 0 0 0 0 0 0
2 2 4 3 1 0 0 0 0 0 0 0 0 0 0 0 0 0 0 0 0 0 0 0 0 0 0 0 0 0 0 0 0 0 0 0 0 0 0 0 0 0 0
1 1 3 3 2 1 0 0 0 0 0 0 0 0 0 0 0 0 0 0 0 0 0 0 0 0 0 0 0 0 0 0 0 0 0 0 0 0 0 0 0 0 0
0 0 1 2 3 2 0 0 0 0 0 0 0 0 0 0 0 0 0 0 0 0 0 0 0 0 0 0 0 0 0 0 0 0 0 0 0 0 0 0 0 0 0
0 0 0 1 2 1 0 0 0 0 0 0 0 0 0 0 0 0 0 0 0 0 0 0 0 0 0 0 0 0 0 0 0 0 0 0 0 0 0 0 0 0 0
0 0 0 0 0 0 0 0 1 0 0 0 0 0 0 0 0 0 0 0 0 0 0 0 0 0 0 0 0 0 0 0 0 0 0 0 0 0 0 0 0 0 0
0 0 0 0 0 0 0 0 0 0 0 0 0 0 0 0 0 0 0 0 0 0 0 0 0 0 0 0 0 0 0 0 0 0 0 0 0 0 0 0 0 0 0
0 0 0 0 0 0 0 0 0 0 0 0 0 0 0 0 0 0 0 0 0 0 0 0 0 0 0 0 0 0 0 0 0 0 0 0 0 0 0 0 0 0 0
0 0 0 0 0 0 0 0 0 0 0 0 0 0 0 0 0 0 0 0 0 0 0 0 0 0 0 0 0 0 0 0 0 0 0 0 0 0 0 0 0 0 0
0 0 0 0 0 0 0 0 0 0 0 0 0 0 0 0 0 0 0 0 0 0 0 0 0 0 0 0 0 0 0 0 0 0 0 0 0 0 0 0 0 0 0
0 0 1 1 0 0 0 0 0 0 0 0 0 0 0 0 0 0 0 0 0 0 0 0 0 0 0 0 0 0 0 0 0 0 0 0 0 0 0 0 0 0 0
0 1 2 1 0 0 0 0 0 0 0 0 0 0 0 0 0 0 0 0 0 0 0 0 0 0 0 0 0 0 0 0 0 0 0 0 0 0 0 0 0 0 0
1 2 2 1 0 0 0 0 0 0 0 0 0 0 0 0 0 0 0 0 0 0 0 0 0 0 0 0 0 0 0 0 0 0 0 0 0 0 0 0 0 0 0

GEFSMW_con_probscp_096.txt.gz
Probability
24 23 24 24 23 24 24 24 24 23 21 18 14 11 8 5 2 1 3 4 5 7 9 9 8 8 9 9 8 6 5 4 5 4 2 1 2 5 10 12 12 12 14
18 18 18 18 18 19 21 23 22 20 18 16 13 10 8 5 3 3 6 8 8 10 12 12 9 6 6 5 4 3 2 2 3 2 1 1 2 5 8 12 15 15 15
11 11 12 12 11 11 14 16 17 14 12 10 8 7 7 6 6 9 13 15 14 14 15 15 11 5 3 1 1 0 0 0 1 1 1 1 3 4 6 8 11 14 16
6 7 8 7 5 6 8 11 12 10 9 8 7 6 6 7 8 12 16 17 15 11 10 13 11 7 2 0 0 0 0 0 0 1 2 2 3 3 4 4 5 8 12
4 4 5 4 3 3 6 11 14 14 11 9 9 9 9 8 8 10 12 11 8 5 4 9 12 9 3 0 0 0 0 0 0 1 1 2 3 3 3 3 3 4 6
3 3 3 3 3 4 7 14 23 23 17 12 11 11 11 9 6 5 5 4 2 2 3 7 10 8 3 0 0 0 0 0 0 0 0 1 2 3 3 3 3 3 4
4 4 4 3 4 6 11 20 30 29 21 15 12 11 10 7 4 2 1 1 0 1 3 4 5 4 1 0 0 0 0 0 0 0 0 0 1 3 3 3 3 3 3
4 4 4 3 4 7 12 21 29 27 19 14 12 9 7 5 2 1 2 2 0 0 1 1 1 1 0 0 0 0 0 0 0 0 0 0 1 2 3 3 3 2 1
5 4 4 3 4 7 10 16 22 21 14 9 8 6 4 3 2 2 3 1 0 0 0 0 0 0 0 0 0 0 0 0 0 0 0 0 0 1 3 3 2 1 1
4 4 5 5 6 6 6 9 14 14 9 6 4 3 3 3 3 2 1 0 0 0 0 0 0 0 0 0 0 0 0 0 0 0 0 0 0 1 2 3 1 1 2
3 3 4 6 6 4 4 6 8 9 7 5 3 3 3 2 1 0 0 0 0 0 0 0 0 0 0 0 0 0 0 0 0 0 0 0 0 1 2 2 1 1 2
1 2 3 4 6 5 4 4 4 5 5 4 4 4 3 1 0 0 0 0 0 0 0 0 0 0 0 0 0 0 0 0 0 0 0 0 0 0 1 1 0 0 1
1 2 4 6 8 8 7 4 3 3 4 4 5 4 3 1 0 0 0 0 0 0 0 0 0 0 0 0 0 0 0 0 0 0 0 0 0 0 0 0 0 0 0
2 5 8 10 11 10 8 6 4 3 4 5 4 4 3 1 0 0 0 0 0 0 0 0 0 0 0 0 0 0 0 0 0 0 0 0 0 0 0 0 0 0 0
4 9 14 15 14 12 10 7 6 5 5 4 3 3 2 1 0 0 1 1 1 0 0 0 0 0 0 0 0 0 0 0 0 0 0 0 0 0 0 0 0 0 0
5 11 18 20 17 13 11 10 9 7 5 4 3 3 2 1 0 0 1 2 2 1 0 0 0 0 0 0 0 0 0 0 0 0 0 0 0 0 0 0 0 0 0
5 12 19 20 18 15 13 11 11 9 6 4 3 3 3 1 0 1 1 3 2 1 0 0 0 0 0 0 0 0 0 0 0 0 0 0 0 0 0 0 0 0 0
7 13 17 18 18 17 15 13 11 10 7 4 4 4 4 3 2 2 3 4 4 1 0 0 0 0 0 0 0 0 0 0 0 0 0 0 0 0 0 0 0 0 0
9 13 16 16 19 20 17 14 12 9 7 5 5 6 6 5 4 4 5 7 6 2 0 0 0 0 0 0 0 0 0 0 0 0 0 0 0 0 0 0 0 0 0
10 13 15 17 21 24 21 16 11 7 5 5 5 6 7 7 6 7 8 9 7 3 0 0 0 0 0 0 0 0 0 0 0 0 0 0 0 0 0 0 0 0 0
10 15 21 26 29 29 25 19 12 7 4 3 3 5 7 7 7 9 11 10 7 4 1 0 0 0 0 0 0 0 0 0 0 0 0 0 0 0 0 0 0 0 0
11 18 32 40 39 34 29 24 18 12 7 3 3 5 8 8 7 8 10 10 7 4 2 0 0 0 0 0 0 0 0 0 0 0 0 0 0 0 0 0 0 0 0
21 26 37 44 44 39 33 28 25 20 12 6 4 7 9 9 8 8 7 6 5 3 1 0 0 0 0 0 0 0 0 0 0 0 0 0 0 0 0 0 0 0 0
37 39 41 45 47 44 36 30 27 24 17 10 7 7 8 8 8 9 7 5 4 2 1 0 0 0 0 0 0 0 0 0 0 0 0 0 0 0 0 0 0 0 0
47 47 47 48 49 47 38 29 26 24 18 12 7 6 5 5 7 9 9 6 4 3 1 1 1 0 0 0 0 0 0 0 0 0 0 0 0 0 0 0 0 0 0
50 49 49 47 48 48 40 28 25 23 18 12 7 5 4 3 4 7 6 4 2 2 1 1 1 0 0 0 0 0 0 0 0 0 0 0 0 0 0 0 0 0 0

GEFSMW_con_probscp_102.txt.gz
Probability
5 4 4 4 4 4 4 4 5 4 2 1 0 0 0 0 0 0 0 0 0 0 0 0 0 0 0 0 0 0 0 0 0 0 0 0 0 0 0 0 0 0 0
3 3 4 4 4 4 4 3 3 2 1 0 0 0 0 0 0 0 0 0 0 0 0 0 0 0 0 0 0 0 0 0 0 0 0 0 0 0 0 0 0 0 0
1 2 3 4 4 5 4 2 1 0 0 0 0 0 0 0 0 0 0 0 0 0 0 0 0 0 0 0 0 0 0 0 0 0 0 0 0 0 0 0 0 0 0
0 1 2 3 4 4 3 1 0 0 0 0 0 0 0 0 0 0 0 0 0 0 0 0 0 0 0 0 0 0 0 0 0 0 0 0 0 0 0 0 0 0 0
0 1 2 2 2 2 1 0 0 0 0 0 0 0 0 0 0 0 0 0 0 0 0 0 0 0 0 0 0 0 0 0 0 0 0 0 0 0 0 0 0 0 0
1 1 2 3 2 1 0 0 0 0 0 0 0 0 0 0 0 0 0 0 0 0 0 0 0 0 0 0 0 0 0 0 0 0 0 0 0 0 0 0 0 0 0
2 3 3 2 1 0 0 0 0 0 0 0 0 0 0 0 0 0 0 0 0 0 0 0 0 0 0 0 0 0 0 0 0 0 0 0 0 0 0 0 0 0 0
3 3 2 1 0 0 0 0 0 0 0 0 0 0 0 0 0 0 0 0 0 0 0 0 0 0 0 0 0 0 0 0 0 0 0 0 0 0 0 0 0 0 0
2 1 1 0 0 0 0 0 0 0 0 0 0 0 0 0 0 0 0 0 0 0 0 0 0 0 0 0 0 0 0 0 0 0 0 0 0 0 0 0 0 0 0
1 0 0 0 0 0 0 0 0 0 0 0 0 0 0 0 0 0 0 0 0 0 0 0 0 0 0 0 0 0 0 0 0 0 0 0 0 0 0 0 0 0 0
0 0 0 0 0 0 0 0 0 0 0 0 0 0 0 0 0 0 0 0 0 0 0 0 0 0 0 0 0 0 0 0 0 0 0 0 0 0 0 0 0 0 0
0 0 0 0 0 0 0 0 0 0 0 0 0 0 0 0 0 0 0 0 0 0 0 0 0 0 0 0 0 0 0 0 0 0 0 0 0 0 0 0 0 0 0
1 1 2 1 0 0 0 0 0 0 0 0 0 0 0 0 0 0 0 0 0 0 0 0 0 0 0 0 0 0 0 0 0 0 0 0 0 0 0 0 0 0 0
2 2 3 2 1 0 0 0 0 0 0 0 1 1 0 0 0 0 0 0 0 0 0 0 0 0 0 0 0 0 0 0 0 0 0 0 0 0 0 0 0 0 0
1 2 3 3 1 0 0 0 0 0 0 1 2 2 1 0 0 0 0 0 0 0 0 0 0 0 0 0 0 0 0 0 0 0 0 0 0 0 0 0 0 0 0
0 1 2 3 3 1 0 0 0 0 0 2 3 2 1 0 0 0 0 0 0 0 0 0 0 0 0 0 0 0 0 0 0 0 0 0 0 0 0 0 0 0 0
0 0 2 4 4 1 0 0 0 0 0 1 2 1 0 0 0 0 0 0 0 0 0 0 0 0 0 0 0 0 0 0 0 0 0 0 0 0 0 0 0 0 0
0 0 1 2 2 1 0 0 0 0 0 0 0 0 0 0 0 0 0 0 0 0 0 0 0 0 0 0 0 0 0 0 0 0 0 0 0 0 0 0 0 0 0
0 0 0 1 1 0 0 0 0 0 0 0 0 0 0 0 0 0 0 0 0 0 0 0 0 0 0 0 0 0 0 0 0 0 0 0 0 0 0 0 0 0 0
0 0 0 0 0 0 0 0 0 0 0 0 0 0 0 0 0 0 0 0 0 0 0 0 0 0 0 0 0 0 0 0 0 0 0 0 0 0 0 0 0 0 0
0 0 0 0 0 0 0 0 0 0 0 0 0 0 0 0 0 0 0 0 0 0 0 0 0 0 0 0 0 0 0 0 0 0 0 0 0 0 0 0 0 0 0
0 0 0 0 0 0 0 0 0 0 0 0 0 0 0 0 0 0 0 0 0 0 0 0 0 0 0 0 0 0 0 0 0 0 0 0 0 0 0 0 0 0 0
0 0 0 0 0 0 0 0 0 0 0 0 0 0 0 0 0 0 0 0 0 0 0 0 0 0 0 0 0 0 0 0 0 0 0 0 0 0 0 0 0 0 0
0 0 0 0 0 0 0 0 0 0 0 0 0 0 0 0 0 0 0 0 0 0 0 0 0 0 0 0 0 0 0 0 0 0 0 0 0 0 0 0 0 0 0
0 0 1 1 1 0 0 0 0 0 0 0 0 0 0 0 0 0 0 0 0 0 0 0 0 0 0 0 0 0 0 0 0 0 0 0 0 0 0 0 0 0 0
0 1 2 2 2 1 0 0 0 0 0 0 0 0 0 0 0 0 0 0 0 0 0 0 0 0 0 0 0 0 0 0 0 0 0 0 0 0 0 0 0 0 0

GEFSMW_con_probscp_108.txt.gz
Probability
4 3 2 4 6 4 4 6 7 6 4 3 2 1 0 0 0 0 0 0 0 0 0 0 0 0 0 0 0 0 0 0 0 0 0 0 0 0 0 0 0 0 0
4 3 1 2 3 2 3 4 5 4 2 2 2 1 0 0 0 0 0 0 0 0 0 0 0 0 0 0 0 0 0 0 0 0 0 0 0 0 0 0 0 0 0
2 2 1 0 1 1 1 2 3 2 1 1 1 0 0 0 0 0 0 0 0 0 0 0 0 0 0 0 0 0 0 0 0 0 0 0 0 0 0 0 0 0 0
0 0 0 0 1 1 0 1 1 1 0 0 0 0 0 0 0 0 0 0 0 0 0 0 0 0 0 0 0 0 0 0 0 0 0 0 0 0 0 0 0 0 0
0 0 0 1 2 2 1 0 0 0 0 0 0 0 0 0 0 0 0 0 0 0 0 0 0 0 0 0 0 0 0 0 0 0 0 0 0 0 0 0 0 0 0
0 0 0 2 3 2 1 0 0 0 0 0 0 0 0 0 0 0 0 0 0 0 0 0 0 0 0 0 0 0 0 0 0 0 0 0 0 0 0 0 0 0 0
0 0 0 1 2 1 1 0 0 0 0 0 0 0 0 0 0 0 0 0 0 0 0 0 0 0 0 0 0 0 0 0 0 0 0 0 0 0 0 0 0 0 0
0 0 0 0 0 0 0 0 0 0 0 0 0 0 0 0 0 0 0 0 0 0 0 0 0 0 0 0 0 0 0 0 0 0 0 0 0 0 0 0 0 0 0
0 0 0 0 0 0 0 0 0 0 0 0 0 0 0 0 0 0 0 0 0 0 0 0 0 0 0 0 0 0 0 0 0 0 0 0 0 0 0 0 0 0 0
0 0 0 0 0 0 0 0 0 0 0 0 0 0 0 0 0 0 0 0 0 0 0 0 0 0 0 0 0 0 0 0 0 0 0 0 0 0 0 0 0 0 0
0 0 0 0 0 0 0 0 0 0 0 0 0 0 0 0 0 0 0 0 0 0 0 0 0 0 0 0 0 0 0 0 0 0 0 0 0 0 0 0 0 0 0
0 0 0 0 0 0 0 0 0 0 0 0 0 0 0 0 0 0 0 0 0 0 0 0 0 0 0 0 0 0 0 0 0 0 0 0 0 0 0 0 0 0 0
0 0 0 0 0 0 0 0 0 0 0 0 0 0 0 0 0 0 0 0 0 0 0 0 0 0 0 0 0 0 0 0 0 0 0 0 0 0 0 0 0 0 0
0 0 0 0 0 0 0 0 0 0 0 0 0 0 0 0 0 0 0 0 0 0 0 0 0 0 0 0 0 0 0 0 0 0 0 0 0 0 0 0 0 0 0
0 0 0 0 0 0 0 0 0 0 0 0 0 0 0 0 0 0 0 0 0 0 0 0 0 0 0 0 0 0 0 0 0 0 0 0 0 0 0 0 0 0 0
0 0 0 0 0 0 0 0 1 1 1 0 0 0 0 0 0 0 0 0 0 0 0 0 0 0 0 0 0 0 0 0 0 0 0 0 0 0 0 0 0 0 0
0 0 0 0 0 0 0 0 1 1 1 0 0 0 0 0 0 0 0 0 0 0 0 0 0 0 0 0 0 0 0 0 0 0 0 0 0 0 0 0 0 0 0
0 0 0 0 0 0 0 0 0 0 0 0 0 0 0 0 0 0 0 0 0 0 0 0 0 0 0 0 0 0 0 0 0 0 0 0 0 0 0 0 0 0 0
0 0 0 0 0 0 0 0 0 0 0 0 0 0 0 0 0 0 0 0 0 0 0 0 0 0 0 0 0 0 0 0 0 0 0 0 0 0 0 0 0 0 0
0 0 0 0 0 0 0 0 0 0 0 0 0 0 0 0 0 0 0 0 0 0 0 0 0 0 0 0 0 0 0 0 0 0 0 0 0 0 0 0 0 0 0
0 0 0 0 0 0 0 0 0 0 0 0 0 0 0 0 0 0 0 0 0 0 0 0 0 0 0 0 0 0 0 0 0 0 0 0 0 0 0 0 0 0 0
0 0 0 0 0 0 0 0 0 0 0 0 0 0 0 0 0 0 0 0 0 0 0 0 0 0 0 0 0 0 0 0 0 0 0 0 0 0 0 0 0 0 0
0 0 0 0 0 0 0 0 0 0 0 0 0 0 0 0 0 0 0 0 0 0 0 0 0 0 0 0 0 0 0 0 0 0 0 0 0 0 0 0 0 0 0
0 0 0 0 0 0 0 0 0 0 0 0 0 0 0 0 0 0 0 0 0 0 0 0 0 0 0 0 0 0 0 0 0 0 0 0 0 0 0 0 0 0 0
0 0 0 0 0 0 0 0 0 0 0 0 0 0 0 0 0 0 0 0 0 0 0 0 0 0 0 0 0 0 0 0 0 0 0 0 0 0 0 0 0 0 0
0 0 0 0 0 0 0 0 0 0 0 0 0 0 0 0 0 0 0 0 0 0 0 0 0 0 0 0 0 0 0 0 0 0 0 0 0 0 0 0 0 0 0

GEFSMW_con_probscp_114.txt.gz
Probability
5 4 4 6 9 11 13 15 16 18 21 19 15 12 9 6 3 2 1 0 0 0 0 1 2 3 3 3 2 1 1 0 0 0 0 0 0 0 0 0 0 0 0
3 3 4 5 6 8 10 13 15 17 17 16 15 12 10 6 2 1 0 0 0 0 0 1 2 3 3 3 3 2 1 0 0 0 0 0 0 0 0 0 0 0 0
1 2 3 4 5 6 8 10 13 14 13 13 12 11 9 5 1 0 0 0 0 0 0 0 1 2 2 2 2 2 1 0 0 0 0 0 0 0 0 0 0 0 0
1 2 2 4 5 6 7 9 10 10 9 9 7 6 6 4 2 1 0 0 0 0 0 0 0 1 1 1 1 1 0 0 0 0 0 0 0 0 0 0 0 0 0
2 1 1 3 4 5 6 7 7 6 6 5 4 3 4 4 3 1 0 0 0 0 0 0 0 0 0 0 0 0 0 0 0 0 0 0 0 0 0 0 0 0 0
2 1 1 1 2 3 4 4 5 5 4 3 2 2 3 3 2 1 0 0 0 0 0 0 0 0 0 0 0 0 0 0 0 0 0 0 0 0 0 0 0 0 0
3 2 1 1 2 3 2 2 3 4 2 1 1 1 1 1 1 0 0 0 0 0 0 0 0 0 0 0 0 0 0 0 0 0 0 0 0 0 0 0 0 0 0
3 2 1 0 1 2 2 2 2 2 1 0 0 1 1 1 1 0 0 0 0 0 0 0 0 0 0 0 0 0 0 0 0 0 0 0 0 0 0 0 0 0 0
2 1 0 0 1 2 3 2 2 2 2 1 1 1 2 2 2 1 0 0 0 0 0 0 0 0 0 0 0 0 0 0 0 0 0 0 0 0 0 0 0 0 0
2 1 0 0 1 2 3 3 3 3 2 2 1 2 3 3 3 2 1 0 0 0 0 0 0 0 0 0 0 0 0 0 0 0 0 0 0 0 0 0 0 0 0
1 0 0 0 1 2 1 2 3 3 3 4 4 3 3 3 3 2 1 0 0 0 0 0 0 0 0 0 0 0 0 0 0 0 0 0 0 0 0 0 0 0 0
1 0 1 1 2 1 1 1 2 4 5 6 6 5 3 3 3 2 1 0 0 0 0 0 0 0 0 1 1 1 1 0 0 0 0 0 0 0 0 0 0 0 0
4 3 4 4 4 2 1 1 2 4 5 6 6 5 4 3 3 3 1 0 0 0 0 0 0 0 0 1 2 2 2 1 0 0 0 0 0 0 0 0 0 0 0
8 8 9 8 7 4 2 1 2 5 8 8 6 5 5 4 4 3 2 1 0 0 0 0 0 0 0 1 3 3 3 2 1 0 0 0 0 0 0 0 0 0 0
10 11 12 11 10 8 7 6 8 12 15 15 11 7 6 6 5 5 4 2 0 0 0 0 0 1 0 1 2 2 2 2 2 1 1 0 0 0 0 0 0 0 0
8 10 13 14 16 17 17 19 25 28 28 23 18 13 11 9 8 8 7 4 2 1 0 0 0 0 0 0 1 1 1 1 2 2 2 1 0 0 0 0 0 0 0
6 8 12 15 21 24 26 34 43 44 39 32 25 20 18 13 11 10 9 8 6 4 3 2 2 1 0 0 0 0 0 0 1 2 2 1 1 0 0 0 0 0 0
7 9 12 17 23 26 31 41 50 50 44 38 30 26 23 19 15 12 11 11 11 9 8 6 6 5 2 0 0 0 0 0 0 1 1 1 1 0 0 0 0 0 0
13 14 16 21 27 33 39 46 50 48 44 40 34 29 26 23 19 15 13 14 15 14 12 10 9 9 6 2 0 0 0 0 0 0 0 1 1 0 0 0 0 0 0
19 19 21 27 37 46 50 51 49 46 44 40 34 29 27 25 22 19 18 17 17 15 14 12 12 13 9 3 0 0 0 0 0 0 0 0 0 0 0 0 0 0 0
19 21 24 30 40 49 51 49 45 43 41 37 29 25 23 21 19 20 20 16 14 14 15 14 14 14 10 4 1 0 0 0 0 0 0 0 0 0 0 0 0 0 0
16 17 23 29 35 39 41 43 40 35 32 27 22 18 16 12 12 16 17 13 11 11 12 12 11 11 9 5 1 0 0 0 0 0 0 0 0 0 0 0 0 0 0
13 14 19 23 24 25 29 36 35 28 23 20 17 14 10 5 5 10 12 10 8 7 6 6 7 7 8 6 3 1 1 0 0 0 0 0 0 0 0 0 0 0 0
14 15 17 19 18 16 20 27 27 23 20 17 15 13 9 5 5 8 8 7 6 5 4 4 4 6 7 6 4 3 3 2 1 1 1 2 2 2 1 1 2 2 1
15 15 16 15 12 10 11 15 17 15 13 12 11 10 8 6 6 6 5 4 4 4 4 4 3 4 4 3 2 2 3 3 3 2 3 4 6 5 3 3 5 5 4
13 13 12 10 8 6 5 6 8 9 7 7 7 7 6 6 5 4 4 3 2 2 2 2 1 2 2 1 0 1 2 2 2 2 3 5 6 6 5 5 6 7 6

GEFSMW_con_probscp_120.txt.gz
Probability
33 38 43 42 37 38 41 41 39 37 36 32 28 25 22 18 14 9 5 3 2 1 0 1 1 2 3 4 4 4 3 3 2 1 0 0 0 0 0 0 0 0 0
33 37 38 33 31 32 34 35 35 34 33 30 26 24 22 18 14 10 6 3 2 1 1 1 1 2 3 4 5 5 3 2 3 2 1 0 0 0 0 0 0 0 0
29 29 25 19 20 23 25 27 29 30 29 24 22 21 20 17 15 12 7 4 3 1 1 1 1 1 3 4 5 5 4 3 2 2 1 0 0 0 0 0 0 0 0
21 19 14 11 13 17 20 24 26 27 24 19 17 18 16 14 13 11 9 6 3 1 1 1 1 1 2 3 3 3 3 3 1 1 0 0 0 0 0 0 0 0 0
15 14 11 9 11 14 18 23 25 22 18 15 15 15 14 12 11 10 9 6 3 1 1 2 2 1 1 1 1 1 2 2 1 0 0 0 0 0 0 0 0 0 0
15 14 11 9 10 13 15 20 22 19 15 14 13 13 12 12 10 9 7 4 3 2 2 2 2 1 0 0 0 0 1 1 0 0 0 0 0 0 0 0 0 0 0
15 14 13 12 12 13 14 18 20 18 14 11 9 9 11 11 9 7 4 2 1 2 2 2 2 1 0 0 0 0 0 0 0 0 0 0 0 0 0 0 0 0 0
15 15 14 14 14 13 13 14 15 15 12 9 7 9 11 9 6 4 2 1 1 2 3 2 1 0 0 0 0 0 0 0 0 0 0 0 0 0 0 0 0 0 0
13 14 14 13 12 12 11 10 11 11 9 7 7 9 10 8 5 3 1 1 2 4 3 2 1 0 1 1 1 0 0 0 0 0 0 0 0 0 0 0 0 0 0
11 12 12 10 9 9 8 8 9 9 7 5 5 6 7 7 5 3 2 3 5 6 4 2 1 2 2 2 1 0 0 0 0 0 0 0 0 0 0 0 0 0 0
9 10 10 8 8 9 9 9 8 7 5 4 5 6 7 8 7 5 5 7 8 6 4 2 2 3 3 3 2 0 0 1 1 1 1 1 0 0 0 0 0 0 0
9 10 11 11 12 12 12 11 10 7 6 6 8 10 11 12 12 10 10 10 9 6 3 3 3 3 3 3 3 2 1 1 2 3 2 2 2 2 1 0 0 0 0
11 15 20 22 21 18 16 15 13 12 12 13 16 20 22 21 18 15 14 14 10 6 4 4 4 4 5 5 5 5 4 3 4 3 3 3 3 3 2 1 1 0 0
16 24 35 38 34 30 27 24 21 19 23 28 32 35 37 34 27 21 18 16 13 10 7 7 7 8 8 7 6 6 5 5 5 4 4 3 3 3 3 2 2 1 0
20 32 46 52 50 46 42 38 35 34 39 46 48 50 50 47 39 28 22 19 16 12 10 10 12 12 9 5 4 4 4 4 5 4 4 3 2 2 2 2 1 1 0
25 37 51 59 61 57 53 52 51 52 56 58 58 60 59 55 45 33 27 26 23 21 19 18 18 16 9 3 1 2 3 4 3 3 3 2 1 1 1 0 0 0 0
35 44 55 61 64 62 61 61 61 63 67 67 66 66 65 61 52 41 38 39 39 37 34 29 24 20 13 4 0 0 2 2 3 4 5 3 1 0 0 0 0 0 0
44 52 61 65 66 66 66 65 65 69 73 74 73 73 73 70 64 57 53 54 54 52 48 41 34 28 19 7 1 0 0 1 1 3 5 5 3 1 1 0 0 0 0
49 55 62 66 69 70 69 67 67 71 75 77 79 79 79 77 74 70 66 64 62 60 55 48 44 40 27 11 2 0 1 2 2 3 4 4 3 1 0 0 1 1 1
50 55 61 64 68 70 70 69 68 70 74 78 79 79 78 77 77 75 73 69 66 63 58 52 50 48 36 16 3 0 2 5 6 6 4 3 1 0 0 1 2 2 2
50 55 60 64 67 69 71 70 70 71 74 75 74 73 72 71 72 75 75 72 67 62 58 55 53 50 39 20 5 1 2 5 7 6 4 2 0 0 0 1 2 2 2
50 53 58 62 65 69 73 73 74 75 75 73 70 67 64 61 62 67 71 69 64 58 55 53 49 45 37 19 5 1 1 2 3 3 2 1 0 0 0 0 1 1 1
46 46 50 56 61 66 70 72 72 72 71 69 67 63 59 55 55 58 61 62 58 51 46 42 37 34 29 18 7 2 1 0 1 1 1 0 0 0 0 0 0 0 0
41 41 44 49 54 56 57 58 60 60 60 60 59 56 52 50 50 51 52 51 48 41 33 29 26 24 22 16 9 5 3 1 0 0 0 0 0 0 1 1 0 0 0
34 36 40 44 46 45 42 42 46 49 48 48 47 43 40 39 41 42 39 33 29 25 19 16 16 17 14 9 6 6 4 2 0 0 0 0 0 2 3 3 2 3 3
28 31 36 40 41 38 35 35 40 44 43 42 40 35 32 32 34 35 28 19 13 11 7 6 8 9 7 3 2 3 3 1 0 1 1 1 1 3 5 5 5 5 6

GEFSMW_con_probscp_126.txt.gz
Probability
28 29 31 32 31 31 32 33 35 35 32 27 23 19 13 7 4 4 4 5 4 2 1 0 0 0 0 0 0 0 0 0 0 0 0 0 0 0 0 0 1 2 3
29 30 30 28 27 27 27 28 28 29 27 24 21 18 13 9 6 4 4 5 4 2 0 0 0 0 0 0 0 0 0 0 0 0 0 0 0 0 0 0 1 2 2
28 28 26 23 20 19 19 19 19 20 19 18 17 16 14 11 8 5 3 4 3 1 0 0 0 0 0 0 0 0 0 0 0 0 0 0 0 0 0 0 1 1 1
24 23 21 17 14 13 13 12 13 13 13 12 12 13 12 9 7 4 2 2 2 1 0 0 0 0 0 0 0 0 0 0 0 0 0 0 0 0 0 0 0 0 0
21 19 17 14 12 11 10 9 10 9 8 6 7 8 7 6 5 4 2 1 1 1 0 0 0 0 0 0 0 0 0 0 0 0 0 0 0 0 0 0 0 0 0
18 17 15 13 12 11 9 8 9 7 4 3 3 4 3 3 3 2 2 1 0 0 0 0 0 0 0 0 0 0 0 0 0 0 0 0 0 0 0 0 0 0 0
14 14 13 12 12 12 10 8 8 6 2 2 3 2 2 1 2 1 1 1 0 0 0 0 0 0 0 0 0 0 0 0 0 0 0 0 0 0 0 0 0 0 0
9 10 10 11 12 12 11 9 7 5 2 2 4 4 2 2 2 2 1 0 0 0 0 0 0 0 0 0 0 0 0 0 0 0 0 0 0 0 0 0 0 0 0
6 7 8 9 10 10 10 9 7 4 3 3 4 5 4 3 3 2 1 0 0 0 0 0 0 0 0 0 0 0 0 0 0 0 0 0 0 0 0 0 0 0 0
5 7 7 7 7 7 8 8 6 4 3 2 3 4 4 3 3 2 1 0 0 0 0 0 0 0 0 0 0 0 0 0 0 0 0 0 0 0 0 0 0 0 0
6 6 6 5 5 5 6 8 6 3 1 1 1 1 2 2 1 1 0 0 0 0 0 0 0 0 0 0 0 0 0 0 0 0 0 0 0 0 0 0 0 0 0
5 6 6 5 4 4 6 8 7 3 0 0 0 0 0 0 0 0 0 0 0 0 0 0 0 0 0 0 0 0 0 0 0 0 0 0 0 0 0 0 0 0 0
6 8 9 7 6 6 7 9 7 3 1 0 0 0 0 0 0 0 0 0 0 0 0 0 0 0 0 0 0 0 0 0 0 0 0 0 0 0 0 0 0 0 0
9 10 11 11 10 10 10 10 8 4 2 1 1 1 1 1 0 0 0 0 0 0 0 0 0 0 0 0 0 0 0 0 0 0 0 0 0 0 0 0 0 0 0
11 13 14 14 13 11 11 12 11 8 5 4 5 4 3 3 1 1 0 0 0 0 0 0 0 0 0 0 0 0 0 0 0 0 0 0 0 0 0 0 0 0 0
10 12 14 14 12 11 11 14 16 14 11 9 8 7 6 5 4 2 1 1 0 0 0 0 0 0 0 0 0 0 0 0 0 0 0 0 0 0 0 0 0 0 0
8 10 12 12 12 12 13 17 20 19 16 14 11 9 9 8 6 5 3 2 1 1 0 0 0 0 0 0 0 0 0 0 0 0 0 0 0 0 0 0 0 0 0
6 7 10 12 13 14 16 21 24 22 20 18 16 15 13 11 9 7 5 4 3 2 2 1 1 1 0 0 0 0 0 0 0 0 0 0 0 0 0 0 0 0 0
7 9 13 16 16 16 18 22 25 25 24 22 21 22 20 16 13 9 6 6 5 5 4 4 3 1 0 0 0 0 0 0 0 0 0 0 0 0 0 0 0 0 0
9 11 15 17 16 15 16 19 23 25 26 26 26 27 25 22 18 13 8 6 6 6 5 4 3 2 1 0 0 0 0 0 0 0 0 0 0 0 0 0 0 0 0
9 11 13 14 13 12 13 16 18 22 24 24 25 27 26 26 23 17 12 8 6 6 5 3 2 2 2 1 1 0 0 0 0 0 0 0 0 0 0 0 0 0 0
8 8 8 10 10 11 12 14 15 17 19 19 18 19 22 24 24 19 14 11 8 7 5 4 3 3 3 2 1 0 0 0 0 0 0 0 0 0 0 0 0 0 0
7 6 6 8 10 12 12 12 13 16 18 16 13 13 15 18 18 15 12 11 9 7 6 4 4 4 5 4 2 1 0 0 0 0 1 0 0 0 0 0 0 0 0
7 5 5 7 9 10 11 11 12 14 16 14 11 11 13 13 12 12 12 11 9 8 7 7 6 7 7 5 3 2 1 1 0 0 0 0 0 0 0 0 0 0 0
7 6 5 6 6 7 7 8 9 9 10 10 9 10 11 10 9 9 10 9 8 7 7 7 9 9 7 5 3 2 2 1 0 0 0 1 1 1 1 1 1 1 0
7 6 6 6 5 4 5 6 6 6 5 7 7 8 8 8 7 6 5 5 6 5 4 5 8 8 5 3 2 2 1 1 0 0 1 2 2 2 2 2 2 2 1

GEFSMW_con_probscp_132.txt.gz
Probability
15 17 19 22 23 21 17 13 10 13 19 21 17 12 5 1 0 1 2 1 0 0 0 0 0 0 0 0 0 0 0 0 0 0 0 0 0 0 0 0 0 0 0
12 16 19 21 21 19 16 12 8 9 14 16 15 10 5 2 1 1 2 1 0 0 0 0 0 0 0 0 0 0 0 0 0 0 0 0 0 0 0 0 0 0 0
9 13 18 20 19 16 12 9 6 5 6 10 10 7 5 4 3 3 2 1 0 0 0 0 0 0 0 0 0 0 0 0 0 0 0 0 0 0 0 0 0 0 0
7 10 15 17 15 12 8 6 4 3 3 5 6 5 4 5 6 5 3 1 1 1 1 0 0 0 0 0 0 0 0 0 0 0 0 0 0 0 0 0 0 0 0
8 9 11 12 11 8 5 3 2 3 3 3 2 1 2 5 6 6 4 3 2 2 2 1 0 0 0 0 0 0 0 0 0 0 0 0 0 0 0 0 0 0 0
10 9 9 10 9 7 4 1 1 2 3 2 1 0 1 3 5 5 4 3 3 3 2 1 0 0 0 0 0 0 0 0 0 0 0 0 0 0 0 0 0 0 0
9 10 10 9 8 6 3 1 0 1 2 1 0 0 1 3 4 4 3 3 3 2 1 0 0 0 0 0 0 0 0 0 0 0 0 0 0 0 0 0 0 0 0
8 10 11 10 8 5 3 1 0 1 1 1 0 0 1 2 2 3 3 3 2 1 0 0 0 0 0 0 0 0 0 0 0 0 0 0 0 0 0 0 0 0 0
7 10 13 12 8 4 1 0 0 0 0 0 0 0 1 1 1 1 2 1 1 0 0 0 0 0 0 0 0 0 0 0 0 0 0 0 0 0 0 0 0 0 0
6 9 12 12 8 4 1 0 0 0 0 0 0 0 0 0 0 1 2 1 0 0 0 0 0 0 0 0 0 0 0 0 0 0 0 0 0 0 0 0 0 0 0
4 6 9 9 7 4 2 1 0 0 0 0 0 1 1 1 1 1 1 1 0 0 0 0 0 0 0 0 0 0 0 0 0 0 0 0 0 0 0 0 0 0 0
2 3 5 6 6 5 4 2 1 0 0 0 0 1 1 1 0 0 0 0 0 0 0 0 0 0 0 0 0 0 0 0 0 0 0 0 0 0 0 0 0 0 0
1 1 2 3 4 4 4 2 1 0 0 0 0 0 0 0 0 0 0 0 0 0 0 0 0 0 0 0 0 0 0 0 0 0 0 0 0 0 0 0 0 0 0
1 1 1 1 1 2 2 2 1 1 0 0 0 0 0 0 0 0 0 0 0 0 0 0 0 0 0 0 0 0 0 0 0 0 0 0 0 0 0 0 0 0 0
1 0 0 0 0 0 1 2 2 2 1 0 0 0 0 0 0 0 0 0 0 0 0 0 0 0 0 0 0 0 0 0 0 0 0 0 0 0 0 0 0 0 0
0 0 0 0 0 0 0 1 2 2 1 0 0 0 0 0 0 1 1 0 0 0 0 0 0 0 0 0 0 0 0 0 0 0 0 0 0 0 0 0 0 0 0
0 0 0 0 0 1 1 1 2 3 3 1 0 0 1 1 1 2 2 1 1 1 0 0 0 0 0 0 0 0 0 0 0 0 0 0 0 0 0 0 0 0 0
0 0 0 0 0 2 3 3 3 5 4 1 1 2 3 3 2 3 3 3 2 2 1 1 0 0 0 0 0 0 0 0 0 0 0 0 0 0 0 0 0 0 0
0 0 0 0 0 2 5 5 5 5 4 3 4 5 6 5 4 3 2 2 3 3 2 1 0 0 0 0 0 0 0 0 0 0 0 0 0 0 0 0 0 0 0
0 0 0 0 0 2 5 6 6 5 5 5 6 7 7 6 4 3 1 2 3 3 3 1 0 0 0 0 0 0 0 0 0 0 0 0 0 0 0 0 0 0 0
0 0 0 0 0 1 4 6 5 4 5 6 6 7 6 4 3 2 1 2 3 3 2 1 0 0 0 0 0 0 0 0 0 0 0 0 0 0 0 0 0 0 0
0 0 0 0 0 1 3 4 4 4 5 6 7 8 6 4 2 1 1 1 2 2 2 1 0 0 0 0 0 0 0 0 0 0 0 0 0 0 0 0 0 0 0
0 0 0 0 0 1 3 4 4 4 5 6 6 7 6 4 3 1 0 0 1 1 1 0 0 0 0 0 0 0 0 0 0 0 0 0 0 0 0 0 0 0 0
0 0 0 0 0 1 2 3 5 6 6 6 5 5 4 4 3 1 0 0 0 0 0 0 0 0 0 0 0 0 0 0 0 0 0 0 0 0 0 0 0 0 0
0 0 0 0 0 0 1 2 4 5 5 4 3 2 3 3 3 2 1 0 0 0 0 0 0 0 0 0 0 0 0 0 0 0 0 0 0 0 0 0 0 0 0
0 0 0 0 0 0 0 1 3 4 4 2 1 1 2 4 4 3 2 1 0 0 0 0 0 0 0 0 0 0 0 0 0 0 0 0 0 0 0 0 0 0 0

GEFSMW_con_probscp_138.txt.gz
Probability
31 36 39 39 40 42 43 40 37 40 47 53 54 48 41 35 29 22 17 13 9 5 3 2 1 1 0 0 0 0 0 0 0 0 0 0 0 0 0 0 0 0 0
31 33 37 38 38 38 39 38 37 38 42 49 52 51 45 36 28 23 19 13 8 5 3 3 2 2 1 0 0 0 0 0 0 0 0 0 0 0 0 0 0 0 0
26 27 29 32 34 34 34 33 33 33 35 40 46 48 44 35 27 24 20 15 10 8 5 4 3 2 2 1 1 0 0 0 0 0 0 0 0 0 0 0 0 0 0
18 19 22 26 29 30 30 28 26 27 29 33 37 39 36 31 28 26 21 15 13 11 7 5 4 3 3 2 1 0 0 0 0 0 0 0 1 0 0 0 0 0 0
12 14 18 23 26 26 26 23 20 21 24 27 31 32 29 28 28 25 19 14 13 12 8 6 4 4 4 3 1 1 0 0 0 0 0 0 0 0 0 0 0 0 0
11 13 16 21 24 23 21 18 15 17 18 19 23 26 25 25 24 20 15 12 12 11 8 6 5 4 4 3 3 2 1 0 0 0 0 0 0 0 0 0 0 0 0
12 13 16 20 22 21 18 16 14 14 12 12 14 16 18 18 17 13 10 9 10 11 9 7 6 5 3 3 4 3 1 0 0 0 0 0 0 1 0 0 0 0 0
10 12 15 18 20 18 17 15 14 13 9 8 9 10 11 13 14 11 7 7 9 10 9 9 7 5 3 3 3 2 1 0 0 0 0 0 0 0 0 0 0 0 0
6 9 13 16 16 15 14 12 12 11 9 8 8 7 7 10 13 11 8 7 9 10 10 9 7 5 3 2 2 1 0 0 0 0 0 0 0 0 0 0 0 0 0
4 7 11 14 13 12 11 9 8 9 9 7 6 5 5 7 10 11 9 9 9 10 10 9 7 5 3 1 1 0 0 0 0 0 0 0 0 0 0 0 0 0 0
6 8 12 13 13 11 9 7 7 9 9 7 5 2 3 6 8 9 9 9 9 9 9 8 6 5 3 1 0 0 0 0 0 0 0 1 1 1 1 1 0 0 1
6 8 11 13 13 11 8 7 7 8 9 8 4 2 2 4 6 8 8 8 8 7 7 6 4 3 1 0 0 0 0 0 0 0 1 2 2 2 2 2 1 1 1
5 7 9 11 11 9 8 7 7 7 9 8 5 2 2 3 5 6 7 7 7 6 5 3 2 1 1 1 1 2 1 0 1 1 1 3 3 3 3 3 2 1 1
5 6 9 10 8 7 8 7 6 6 7 8 6 4 3 3 4 5 6 7 7 6 4 3 2 2 2 2 3 3 2 2 2 2 2 2 3 3 3 2 1 1 1
6 7 10 11 8 7 8 8 6 6 7 7 7 5 4 4 4 6 7 9 8 7 5 5 3 3 3 3 2 3 3 3 4 4 3 2 2 2 1 1 1 1 1
8 8 9 12 13 11 9 8 6 6 7 8 7 7 5 5 5 7 11 13 13 11 11 10 7 4 3 1 1 1 2 4 5 6 5 4 2 1 0 0 0 0 0
9 8 9 13 15 14 12 10 8 8 9 9 10 9 8 9 10 11 15 20 20 18 19 18 14 9 5 1 0 0 1 3 5 8 9 7 3 1 1 1 1 1 2
11 9 9 12 13 13 13 14 14 15 15 14 15 15 14 16 17 18 22 26 26 25 26 25 21 16 9 3 0 0 1 3 5 10 13 11 6 2 1 2 3 5 6
14 13 12 12 12 12 14 17 20 21 20 19 21 22 23 26 27 29 33 35 34 32 30 28 26 23 16 6 1 0 1 4 9 15 17 13 7 3 1 2 4 7 8
17 17 17 15 15 15 18 21 23 22 22 22 24 26 32 37 40 44 46 44 41 39 35 32 32 30 22 10 2 0 3 8 15 23 21 11 4 1 0 0 2 4 6
15 17 19 20 20 22 26 29 29 27 25 25 25 29 34 39 43 48 50 49 46 43 40 37 36 33 25 11 2 0 2 9 18 24 22 12 3 0 0 0 1 2 3
11 14 18 20 22 24 27 31 33 31 29 27 27 30 32 33 36 41 45 45 43 40 37 36 35 32 23 12 3 0 1 5 12 16 15 9 3 0 0 0 0 1 1
8 12 16 17 17 19 22 26 30 31 29 28 28 29 30 30 31 34 36 36 34 30 27 30 32 29 23 16 7 2 0 2 5 7 6 3 1 0 0 0 0 0 0
5 7 11 12 11 13 17 21 26 30 30 28 28 27 28 29 29 28 27 25 23 21 20 24 27 26 23 18 10 4 3 3 2 2 2 1 1 0 0 0 0 0 0
2 4 6 6 6 8 12 17 22 27 28 27 24 23 24 25 24 20 16 14 14 14 13 15 17 18 16 11 6 5 4 4 3 2 2 2 2 1 0 0 0 0 0
1 3 5 5 3 4 9 13 17 22 24 23 21 19 19 20 19 16 11 7 7 7 6 7 9 10 8 4 2 2 3 3 2 1 2 3 2 1 1 1 1 0 0

GEFSMW_con_probscp_144.txt.gz
Probability
71 72 72 71 72 74 74 72 71 71 69 66 60 52 53 57 55 50 44 36 27 19 14 12 11 8 6 4 2 1 0 0 0 0 0 0 0 0 0 0 0 0 1
69 70 70 71 71 71 71 70 70 69 66 64 59 53 52 53 52 49 45 36 27 18 13 12 10 8 7 5 3 2 1 0 0 0 0 0 0 0 0 0 0 0 1
67 68 69 68 65 62 62 63 66 66 63 61 58 51 46 45 47 47 43 36 27 18 14 14 13 10 8 6 3 2 1 0 0 0 0 1 2 1 0 0 0 0 1
62 65 67 63 57 53 52 55 59 61 59 57 53 46 41 41 44 45 41 37 29 20 16 18 18 14 10 6 3 1 0 0 0 0 0 1 2 1 1 1 0 0 0
52 58 60 55 49 46 47 50 53 54 54 51 47 41 38 40 44 45 43 39 31 21 17 20 21 18 14 9 4 1 1 1 1 1 1 1 1 1 0 0 0 0 0
43 48 49 45 43 42 44 47 48 48 47 44 40 35 35 40 46 45 41 37 30 23 20 19 19 19 16 13 8 4 3 2 2 2 2 1 1 1 0 0 0 0 0
35 39 40 39 40 40 40 42 43 42 40 35 31 28 29 36 42 41 34 30 27 23 22 20 19 19 17 14 11 6 4 3 3 3 3 2 2 1 0 0 0 0 0
29 30 31 34 36 35 36 36 36 36 33 29 25 23 24 28 33 34 29 24 22 20 20 22 20 19 16 13 9 6 5 4 3 3 2 2 1 1 0 0 0 0 0
24 22 24 29 32 33 33 32 31 29 28 25 21 18 18 20 23 27 27 23 19 18 19 20 19 16 14 11 8 6 6 6 4 1 1 1 0 0 0 0 0 0 0
19 18 21 24 28 30 31 30 27 25 25 22 17 14 16 17 19 22 25 25 23 22 19 16 14 13 12 10 9 7 7 6 3 1 0 0 0 0 0 0 0 0 0
16 18 20 22 23 26 28 27 23 22 21 19 16 15 16 17 15 16 20 26 29 26 19 14 13 12 11 11 10 8 6 5 3 1 0 0 0 0 0 0 0 0 1
19 23 25 23 21 23 24 23 20 18 18 16 15 14 16 16 12 12 17 24 28 24 18 15 13 11 10 10 9 6 5 5 5 4 2 1 0 1 1 1 0 0 1
29 32 33 29 23 21 21 19 17 15 14 13 12 13 14 14 12 10 14 19 22 20 17 14 10 8 7 8 7 5 5 6 7 8 5 2 2 3 3 2 1 1 1
35 37 39 36 28 23 21 18 14 13 13 11 11 12 13 12 11 10 13 16 17 16 15 12 8 5 4 5 5 4 5 6 8 9 7 4 3 5 5 3 3 3 2
30 34 39 41 37 31 26 20 16 14 14 13 12 13 14 13 11 10 13 17 16 14 15 13 9 5 3 3 4 5 6 8 9 9 6 4 4 4 3 3 3 4 4
24 29 38 45 46 41 35 28 23 21 21 17 14 15 16 14 12 11 15 19 19 18 18 16 12 8 4 1 3 6 7 9 10 10 7 4 2 2 2 1 1 2 4
27 30 37 46 50 48 43 37 30 28 28 24 19 17 17 17 16 15 18 23 25 26 25 22 19 14 7 2 1 3 6 9 12 14 14 9 4 4 5 3 2 1 2
36 36 39 43 47 48 46 41 35 32 33 31 27 24 23 22 22 23 27 32 36 37 35 30 26 21 12 3 0 0 3 7 11 15 19 17 11 7 7 7 5 5 5
39 39 39 41 44 46 47 44 39 36 35 34 32 32 32 30 28 32 39 44 46 46 44 38 33 28 19 7 0 0 2 5 7 11 15 17 13 8 5 8 10 10 10
35 35 37 41 45 48 51 50 45 41 38 36 37 38 39 37 36 39 44 48 49 48 44 39 34 30 23 10 1 0 1 2 5 8 10 9 7 4 2 5 10 11 11
29 30 33 38 44 49 53 52 49 46 44 43 43 43 42 40 39 41 43 44 43 41 37 32 28 27 21 10 2 0 0 1 4 9 10 6 2 1 1 2 5 6 6
26 27 29 33 38 43 47 47 46 46 45 44 43 42 41 37 35 37 38 37 36 33 30 27 25 24 21 11 3 0 0 1 3 6 8 5 1 0 0 0 1 1 2
24 24 24 26 28 32 35 37 39 39 38 36 35 34 32 30 28 29 30 30 29 28 27 26 25 24 21 15 6 1 0 0 1 2 2 2 0 0 0 0 0 0 0
17 17 16 17 18 21 25 28 30 30 30 29 27 25 22 21 21 21 20 21 21 22 22 22 22 20 18 14 7 2 0 0 0 0 0 0 0 0 0 0 0 0 0
9 9 8 8 8 11 15 18 21 23 23 22 20 18 17 16 17 15 12 11 12 12 12 13 13 12 11 8 4 1 0 0 0 0 0 0 0 0 0 0 0 0 0
5 5 4 3 3 5 9 12 15 18 19 19 18 16 17 17 16 13 8 5 4 4 4 5 6 6 4 3 1 0 0 0 0 0 0 0 1 1 1 0 0 0 0

GEFSMW_con_probscp_150.txt.gz
Probability
53 58 64 67 65 59 53 50 47 42 33 24 22 21 18 15 14 13 11 7 4 2 1 0 0 0 0 0 0 0 0 0 0 0 0 0 0 0 0 0 0 0 0
58 61 64 65 64 59 54 49 47 44 36 29 25 23 20 17 14 13 12 9 6 4 1 0 0 0 0 0 0 0 0 0 0 0 0 0 0 0 0 0 0 0 0
56 58 60 60 57 53 50 46 44 44 40 33 29 26 22 17 14 13 13 11 8 5 2 0 0 0 0 0 0 0 0 0 0 0 0 0 0 0 0 0 0 0 0
47 48 50 51 49 44 42 41 41 42 41 35 30 27 23 18 15 14 13 10 8 5 2 1 0 0 0 0 0 0 0 0 0 0 0 0 0 0 0 0 0 0 0
38 37 39 42 43 41 38 37 38 39 39 36 31 25 22 19 18 16 13 9 7 5 4 2 1 0 0 0 0 0 0 0 0 0 0 0 0 0 0 0 0 0 0
30 30 31 34 36 37 36 34 33 33 33 32 28 22 19 20 22 20 14 9 7 6 4 3 1 0 0 0 0 0 0 0 0 0 0 0 0 0 0 0 0 0 0
25 26 26 27 29 31 32 30 28 26 25 25 21 16 15 17 20 20 15 10 9 8 6 4 2 1 0 0 0 0 0 0 0 0 0 0 0 0 0 0 0 0 0
20 21 23 23 23 24 26 26 24 21 19 18 15 12 10 11 13 15 14 11 9 8 6 5 4 1 0 0 0 0 0 0 0 0 0 0 0 0 0 0 0 0 0
14 16 18 18 17 18 21 23 20 16 13 12 11 10 8 7 8 11 11 8 7 6 5 5 4 2 0 0 0 0 0 0 0 0 0 0 0 0 0 0 0 0 0
10 11 12 14 15 16 18 18 15 11 8 8 7 7 6 5 5 8 8 5 3 3 3 4 3 1 0 0 0 0 0 0 0 0 0 0 0 0 0 0 0 0 0
8 9 10 13 15 15 15 14 11 7 5 4 4 4 3 3 3 4 4 2 1 2 3 3 3 1 0 0 0 0 0 0 0 0 0 0 0 0 0 0 0 0 0
5 7 9 12 13 12 11 11 8 5 2 1 1 1 1 1 1 1 1 1 1 2 2 3 3 2 1 0 0 0 0 0 0 0 0 0 0 0 0 0 0 0 0
5 7 9 10 9 8 8 9 7 3 1 0 0 0 0 0 0 0 0 0 1 2 2 2 2 2 1 0 0 0 0 0 0 0 0 0 0 0 0 0 0 0 0
6 7 8 7 6 5 6 7 5 3 2 1 1 0 0 0 0 0 0 0 0 1 1 1 1 1 0 0 0 0 0 0 0 0 0 0 0 0 0 0 0 0 0
7 6 5 5 5 5 4 4 3 3 2 2 2 2 2 1 0 0 0 0 0 0 0 0 0 0 0 0 0 1 0 0 0 0 0 0 0 0 0 0 0 0 0
9 6 4 4 4 5 3 1 1 1 1 2 2 3 4 2 0 1 1 1 0 0 0 0 0 0 0 0 0 0 0 0 0 0 0 0 0 0 0 0 0 0 0
13 11 7 5 5 5 4 1 0 0 1 1 1 3 4 3 1 2 2 2 1 0 0 0 0 0 0 0 0 0 0 0 0 0 0 0 0 0 0 0 0 0 0
14 14 11 8 6 6 5 3 1 1 1 0 1 2 3 2 2 3 4 4 3 1 0 1 1 1 0 0 0 0 0 0 0 0 0 0 0 0 0 0 0 0 0
15 15 14 10 7 6 7 5 4 3 2 1 2 3 3 3 3 4 5 5 4 2 1 2 2 2 1 0 0 0 0 0 0 0 0 0 0 0 0 0 0 0 0
13 13 12 8 5 6 8 8 6 6 4 4 4 3 3 3 3 4 4 4 4 4 3 3 2 2 1 0 0 0 0 0 0 0 0 0 0 0 0 0 0 0 0
8 9 8 6 5 8 9 9 8 7 6 5 5 4 4 3 3 3 3 3 4 5 5 2 1 1 1 0 0 0 0 0 0 0 0 0 0 0 0 0 0 0 0
6 6 6 6 6 7 8 8 7 6 4 5 5 5 4 4 3 3 3 3 3 4 4 3 1 0 0 0 0 0 0 0 0 0 0 0 0 0 0 0 0 0 0
5 5 5 4 4 3 3 4 4 3 3 4 5 4 4 3 3 4 4 4 4 4 4 3 2 1 0 0 0 0 0 0 0 0 0 0 0 0 0 0 0 0 0
4 4 3 2 1 1 1 1 1 1 2 4 5 4 4 4 4 5 5 5 4 4 3 4 4 3 2 1 0 0 0 0 0 0 0 0 0 0 0 0 0 0 0
2 1 1 1 0 0 0 0 0 1 2 4 5 6 6 6 5 4 4 3 3 3 3 4 5 5 4 3 1 0 0 0 0 0 0 0 0 0 0 0 0 0 0
0 0 0 0 0 0 0 0 0 0 1 4 6 6 6 6 6 4 3 2 1 1 1 2 4 4 4 2 1 0 0 0 0 0 0 0 0 0 0 0 0 0 0